Volver al catálogo

YAOGAN-35 04A

ActivoMilitarVLEO
NORAD 53522·PAYLOAD·🇨🇳 China

Lanzado Aug 19, 2022 desde Xichang Satellite Launch Center

Loading…

Próximos Pases (próximas 24 horas)

TLE

ActualizadoSource: Space-Track

Época: Sep 14, 2026, 08:04 UTC

1 53522U 22100A   26257.33651656  .00007315  00000-0  30514-3 0  9991
2 53522  35.0102 211.2142 0007558 354.0025   6.0598 15.22952083226866

Sigue YAOGAN-35 04A en tiempo real con AllMySat

Download on the App Store